TimePDT,TemperatureF,Dew PointF,Humidity,Sea Level PressureIn,VisibilityMPH,Wind Direction,Wind SpeedMPH,Gust SpeedMPH,PrecipitationIn,Events,Conditions,WindDirDegrees,DateUTC
12:53 AM,50.0,45.0,83,30.33,10.0,Calm,Calm,-,N/A,,Clear,0,2013-10-14 07:53:00
1:53 AM,46.9,44.1,90,30.34,10.0,NNW,3.5,-,N/A,,Partly Cloudy,340,2013-10-14 08:53:00
2:53 AM,44.1,42.1,93,30.34,5.0,Calm,Calm,-,N/A,,Partly Cloudy,0,2013-10-14 09:53:00
3:18 AM,44.6,42.8,93,30.34,2.5,Calm,Calm,-,N/A,,Scattered Clouds,0,2013-10-14 10:18:00
3:25 AM,44.6,42.8,93,30.34,0.5,Calm,Calm,-,N/A,Fog,Fog,0,2013-10-14 10:25:00
3:39 AM,44.6,42.8,93,30.33,0.2,SSE,3.5,-,N/A,Fog,Fog,150,2013-10-14 10:39:00
3:53 AM,44.1,43.0,96,30.33,0.2,South,3.5,-,N/A,Fog,Fog,170,2013-10-14 10:53:00
3:55 AM,44.6,42.8,93,30.33,0.2,South,3.5,-,N/A,Fog,Fog,170,2013-10-14 10:55:00
4:53 AM,45.0,45.0,100,30.34,0.2,Calm,Calm,-,N/A,Fog,Fog,0,2013-10-14 11:53:00
5:15 AM,44.6,44.6,100,30.35,0.2,Calm,Calm,-,N/A,Fog,Fog,0,2013-10-14 12:15:00
5:51 AM,44.6,44.6,100,30.35,0.5,Calm,Calm,-,N/A,,Overcast,0,2013-10-14 12:51:00
5:53 AM,45.0,45.0,100,30.35,0.5,West,3.5,-,N/A,,Overcast,260,2013-10-14 12:53:00
6:14 AM,44.6,44.6,100,30.36,0.5,West,3.5,-,N/A,Fog,Fog,260,2013-10-14 13:14:00
6:27 AM,44.6,44.6,100,30.36,0.5,Calm,Calm,-,N/A,Fog,Fog,0,2013-10-14 13:27:00
6:53 AM,45.0,44.1,97,30.37,0.8,Calm,Calm,-,N/A,,Mist,0,2013-10-14 13:53:00
7:11 AM,44.6,42.8,93,30.37,0.8,Calm,Calm,-,N/A,,Mostly Cloudy,0,2013-10-14 14:11:00
7:27 AM,42.8,42.8,100,30.37,2.5,Calm,Calm,-,N/A,,Scattered Clouds,0,2013-10-14 14:27:00
7:34 AM,42.8,41.0,93,30.37,2.5,Calm,Calm,-,N/A,,Scattered Clouds,0,2013-10-14 14:34:00
7:46 AM,42.8,41.0,93,30.38,5.0,Calm,Calm,-,N/A,,Partly Cloudy,0,2013-10-14 14:46:00
7:53 AM,42.1,41.0,96,30.38,7.0,Calm,Calm,-,N/A,Fog,Patches of Fog,0,2013-10-14 14:53:00
8:53 AM,46.0,42.1,86,30.39,10.0,Calm,Calm,-,N/A,,Partly Cloudy,0,2013-10-14 15:53:00
9:53 AM,46.9,42.1,83,30.39,10.0,Calm,Calm,-,N/A,,Partly Cloudy,0,2013-10-14 16:53:00
10:53 AM,51.1,43.0,74,30.38,10.0,NW,5.8,-,N/A,,Partly Cloudy,320,2013-10-14 17:53:00
11:53 AM,55.0,44.1,67,30.37,10.0,Calm,Calm,-,N/A,,Partly Cloudy,0,2013-10-14 18:53:00
12:53 PM,57.9,44.1,60,30.36,10.0,West,9.2,-,N/A,,Clear,270,2013-10-14 19:53:00
1:53 PM,61.0,45.0,56,30.34,10.0,West,8.1,-,N/A,,Clear,270,2013-10-14 20:53:00
2:53 PM,64.9,46.0,50,30.32,10.0,West,8.1,-,N/A,,Clear,280,2013-10-14 21:53:00
3:53 PM,68.0,45.0,43,30.30,10.0,NW,6.9,-,N/A,,Clear,320,2013-10-14 22:53:00
4:53 PM,68.0,41.0,37,30.30,10.0,North,8.1,-,N/A,,Partly Cloudy,10,2013-10-14 23:53:00
5:53 PM,64.0,45.0,50,30.31,10.0,North,8.1,-,N/A,,Clear,350,2013-10-15 00:53:00
6:53 PM,61.0,46.9,60,30.31,10.0,North,4.6,-,N/A,,Clear,360,2013-10-15 01:53:00
7:53 PM,57.0,46.0,67,30.33,10.0,West,3.5,-,N/A,,Clear,280,2013-10-15 02:53:00
8:53 PM,55.9,45.0,67,30.33,10.0,NW,5.8,-,N/A,,Clear,310,2013-10-15 03:53:00
9:53 PM,52.0,46.0,80,30.34,10.0,West,3.5,-,N/A,,Clear,260,2013-10-15 04:53:00
10:53 PM,50.0,46.0,86,30.35,10.0,Calm,Calm,-,N/A,,Clear,0,2013-10-15 05:53:00
11:53 PM,46.0,43.0,89,30.35,9.0,SW,3.5,-,N/A,,Clear,230,2013-10-15 06:53:00